ASTRA 1KR

Last updated on Tue Oct 08 2024 00:02:38 GMT+0000 (Coordinated Universal Time)

1 29055U 06012A 24281.18935990 .00000131 00000+0 00000+0 0 9994 2 29055 0.0214 90.0151 0005391 124.5588 249.1599 1.00270194 39529
UTC large
Height (km)
Speed (km/s)
/
Latitude / Longitude
Inclination (degrees)
Orbital Period (minutes)
Azimuth
Elevation
Range (km)
Doppler Factor

Next 0 passes for location: London (51.5072 / 0.1276)

Sorry there are no passes over London.